#timestamp,LO_Frequency,Hit,StdDev 
1600246815.9,286047003.5,N
1600246835.7,286047001.5,N
1600246855.5,286047001.4,N
1600246875.4,286047004.0,N
1600246895.2,286047004.1,N
1600246915.1,286047002.2,N
1600246916.0,286047002.2,N
1600246935.8,286047002.3,N
1600246955.6,286047002.3,N
1600246975.5,286047002.2,N
1600246995.3,286046999.8,N
1600247015.1,286047001.8,N
1600247035.9,286047001.5,N
1600247055.7,286047002.2,N
1600247075.6,286047001.0,N
1600247095.4,286047000.5,N
1600247115.2,286047002.5,N
1600247135.1,286047001.9,N
1600247136.0,286047001.9,N
1600247155.8,286047000.8,N
1600247175.6,286047002.4,N
1600247195.5,286047002.4,N
1600247215.3,286047000.1,N
1600247235.2,286047001.4,N
1600247255.9,286047001.8,N
1600247275.7,286047002.0,N
1600247295.6,286047002.7,N
1600247315.4,286046999.7,N
1600247335.3,286047000.2,N
1600247355.1,286046998.5,N
1600247356.0,286046998.5,N
1600247375.8,286047004.1,Y
1600247395.7,286047001.9,P
1600247415.5,286047004.3,P
1600247435.4,286047003.4,N
1600247455.2,286047006.0,Y
1600247475.0,286046999.9,P
1600247475.9,286046999.9,N
1600247495.8,286047001.2,N
1600247515.6,286047000.9,N
1600247535.5,286046998.1,N
1600247555.3,286046996.6,N
1600247575.1,286046997.4,N
1600247595.9,286046999.6,N
1600247615.7,286046999.2,N
1600247635.5,286046999.2,N
1600247655.4,286046998.4,N
1600247675.2,286046998.7,N
1600247695.1,286047000.5,N
1600247696.0,286047000.5,N
1600247715.8,286047000.5,N
1600247735.6,286046997.4,N
1600247755.5,286046995.3,Y
1600247775.3,286046997.1,P
1600247795.2,286046999.6,N
1600247815.9,286047001.0,N
1600247835.7,286047002.2,N
1600247855.6,286047000.4,N
1600247875.4,286047000.5,N
1600247895.2,286046998.3,N
1600247915.1,286046999.3,N
1600247916.0,286046999.3,N
1600247935.8,286047001.0,N
1600247955.7,286046998.2,N
1600247975.5,286046997.9,N
1600247995.3,286046996.2,N
1600248015.2,286046997.1,N
1600248035.0,286046995.1,Y
1600248035.9,286046995.1,P
1600248055.8,286046996.7,N
1600248075.6,286046997.5,N
1600248095.4,286046997.2,N
1600248115.3,286046998.5,N
1600248135.1,286046997.0,N
1600248136.0,286046997.0,N
1600248155.8,286046998.4,N
1600248175.7,286046997.3,N
1600248195.5,286046996.9,N
1600248215.4,286046998.9,N
1600248235.2,286047000.6,N
1600248255.0,286046999.4,N
1600248255.9,286046999.4,N
1600248275.8,286046997.4,N
1600248295.6,286046995.1,Y
1600248315.4,286046998.3,P
1600248335.3,286046998.4,P
1600248355.1,286046999.7,N
1600248375.9,286046998.7,N
1600248395.7,286047001.0,N
1600248415.5,286047000.7,N
1600248435.4,286046999.0,N
1600248455.2,286046999.1,N
1600248475.0,286046998.2,N
1600248476.0,286046998.2,N
1600248495.8,286046997.0,Y
1600248515.6,286046998.8,P
1600248535.5,286046998.8,P
1600248555.3,286047001.0,P
1600248575.1,286047001.1,N
1600248595.9,286046998.1,N
1600248615.7,286047000.4,N
1600248635.6,286046997.1,N
1600248655.4,286046997.3,N
1600248675.2,286046997.9,N
1600248695.1,286046997.8,N
1600248696.0,286046997.8,N
1600248715.8,286047000.6,N
1600248735.6,286047000.9,N
1600248755.5,286047000.4,N
1600248775.3,286046998.5,N
1600248795.2,286047001.2,N
1600248815.9,286047001.5,N
1600248835.7,286046999.9,N
1600248855.6,286047000.9,N
1600248875.4,286046999.8,N
1600248895.3,286046999.8,N
1600248915.1,286047001.0,N
1600248916.0,286047001.0,N
1600248935.8,286047001.7,N
1600248955.7,286047000.2,N
1600248975.5,286047000.6,N
1600248995.3,286046999.7,N
1600249015.2,286047001.4,N
1600249035.0,286047004.0,N
1600249035.9,286047004.0,N
1600249055.8,286047001.5,N
1600249075.6,286046998.2,N
1600249095.4,286047000.4,N
1600249115.3,286046998.8,N
1600249135.1,286046996.8,N
1600249155.9,286046997.4,N
1600249175.7,286046997.6,N
1600249195.5,286046999.3,N
1600249215.4,286046996.5,N
1600249235.2,286046999.0,N
1600249255.0,286046996.8,N
1600249255.9,286046996.8,N
1600249275.8,286046997.7,N
1600249295.6,286046996.8,N
1600249315.5,286046995.3,N
1600249335.3,286046998.2,N
1600249355.1,286046995.1,N
1600249375.9,286046999.5,N
1600249395.7,286046997.0,N
1600249415.5,286046997.1,N
1600249435.4,286046996.8,N
1600249455.2,286047002.2,N
1600249475.1,286046999.7,N
1600249476.0,286046999.7,N
1600249495.8,286046998.4,N
1600249515.6,286046997.7,N
1600249535.5,286046999.1,N
1600249555.3,286046999.0,N
1600249575.2,286046997.5,N
1600249595.9,286046997.4,N
1600249615.7,286046998.5,N
1600249635.6,286046996.6,N
1600249655.4,286046997.7,N
1600249675.2,286046997.9,N
1600249695.1,286046998.5,N
1600249696.0,286046998.5,N
1600249715.8,286047000.2,N
1600249735.7,286046999.7,N
1600249755.5,286046998.3,N
1600249775.3,286046995.6,Y
1600249795.2,286046994.9,P
1600249815.0,286046999.3,N
1600249815.9,286046999.3,N
1600249835.8,286046999.0,N
1600249855.6,286046999.0,N
1600249875.4,286046999.3,N
1600249895.3,286047000.3,N
1600249915.1,286046998.6,N
1600249935.8,286046998.6,N
1600249955.7,286046999.0,N
1600249975.5,286046996.5,N
1600249995.4,286046997.2,N
1600250015.2,286047000.7,N
1600250035.0,286047001.8,N
1600250035.9,286047001.8,N
1600250055.8,286047003.5,N
1600250075.6,286047003.9,N
1600250095.5,286047004.1,N
1600250115.3,286047002.6,N
1600250135.1,286046999.9,N
1600250155.9,286046999.1,N
1600250175.7,286046997.1,N
1600250195.5,286046998.3,N
1600250215.4,286047000.5,N
1600250235.2,286047000.1,N
1600250255.1,286047002.6,N
1600250256.0,286047002.6,N
1600250275.8,286047000.5,N
1600250295.6,286047001.0,N
1600250315.5,286047001.2,N
1600250335.3,286047000.6,N
1600250355.1,286046998.7,N
1600250375.9,286046998.4,N
1600250395.7,286046998.6,N
